Location: Civry
(47.2902°N, 4.6156°E)
Time: 09:36:31
(UTC+00:00)

RESURS DK-1 - Pass Details

Date: 09 April 2020
Orbit: 557 x 561 km, 69.9° (Epoch: 25 May)

Event Time Altitude Azimuth Distance (km) Brightness Sun altitude
Rises 20:44:00 0° 333° (NNW) 2,761 7.1 -22.0°
Reaches altitude 10° 20:46:14 10° 336° (NNW) 1,861 5.9 -22.3°
Enters shadow 20:50:15 65° 47° (NE) 619 2.4 -22.8°
